Regional Weather Roundup
Issued by NWS Upton, NY

Current Version | Previous Version | Text Only | Print | Product List | Glossary On
Versions: 1 2 3 4 5 6 7 8 9 10 11 12 13 14 15 16 17 18 19 20 21 22 23 24 25 26 27 28
000
ASUS41 KOKX 232304
RWROKX

REGIONAL WEATHER ROUNDUP
NATIONAL WEATHER SERVICE NEW YORK NY
700 PM EDT TUE AUG 23 2016

NOTE: "FAIR" INDICATES FEW OR NO CLOUDS BELOW 12,000 FEET WITH NO
SIGNIFICANT WEATHER AND/OR OBSTRUCTIONS TO VISIBILITY.

NYZ071-072-176-178-NJZ106-104-240000-
NEW YORK CITY METRO AREA

CITY           SKY/WX    TMP DP  RH WIND       PRES   REMARKS
Central Park   CLEAR     77  56  48 CALM      30.26F
LaGuardia APRT PTCLDY    80  56  43 SE12      30.23S
Kennedy INTL   PTCLDY    75  61  61 S12       30.25F
Newark/Liberty PTCLDY    81  53  37 W12G17    30.23F
Bronx Bot Gard   N/A     81  54  39 N2        30.25F
Wall St Helipt CLEAR     81  57  44 S6        30.25S
Teterboro      CLEAR     79  53  40 W7        30.22F
$$

NYZ177-179-078>081-240000-
LONG ISLAND NEW YORK

CITY           SKY/WX    TMP DP  RH WIND       PRES   REMARKS
Farmingdale    CLEAR     74  56  53 S9        30.25F
MacArthur/ISP  PTCLDY    74  55  51 SW12      30.24F
Shirley        CLEAR     73  55  53 S7        30.26S
Riverhead      NOT AVBL
Westhampton    CLEAR     72  54  53 S8        30.27F
Southampton      N/A     72  59  64 SW6       30.22S
Bridgehampton    N/A     70  57  64 CALM      30.25S
East Hampton   FAIR      70  56  61 SW7       30.25S
Montauk          N/A     71  58  63 SW6       30.26F
$$

NYZ052-065-067-240000-
HUDSON VALLEY

CITY           SKY/WX    TMP DP  RH WIND       PRES   REMARKS
White Plains   CLEAR     76  55  48 NW3       30.24F
Newburgh       CLEAR     77  59  53 SW5       30.25F
Montgomery     CLEAR     76  60  57 W5        30.23F
Poughkeepsie   CLEAR     80  56  43 S5        30.21F
Albany         PTCLDY    76  58  53 SW5       30.22S
$$

NJZ001-105-106-008-010-013-015-019>022-104-240000-
NEW JERSEY

CITY           SKY/WX    TMP DP  RH WIND       PRES   REMARKS
Newark/Liberty PTCLDY    81  53  37 W12G17    30.23F
Teterboro      CLEAR     79  53  40 W7        30.22F
Caldwell       CLEAR     79  57  46 VRB5      30.24F
Morristown     CLEAR     79  57  47 W7        30.25S
Somerville     CLEAR     77  58  51 CALM      30.23F
Linden         FAIR     N/A N/A N/A CALM      30.26S
Sussex         CLEAR     76  60  57 CALM      30.25S
Abdover          N/A     74  59  59 CALM      30.26S
Trenton        CLEAR     80  54  40 N5        30.25S
Millville      CLEAR     77  59  53 W6        30.26F
Atlantic City  CLEAR     75  56  51 S8        30.27S
Wrightstown    CLEAR     78  57  49 VRB5      30.22F
Toms River     CLEAR     74  58  57 S6        30.27S
Belmar         CLEAR     74  57  55 SE6       30.27S
$$

PAZ047>061-062-071-240000-
EASTERN PENNSYLVANIA

CITY           SKY/WX    TMP DP  RH WIND       PRES   REMARKS
Philadelphia   PTCLDY    81  53  37 NW9       30.26S
Allentown      CLEAR     77  57  50 SW7       30.26S
Scranton       CLEAR     76  54  46 SW9       30.27S
$$

CTZ002-004>006-009-010-012-RIZ004-006-007-MAZ004-011-015-240000-
SOUTHERN NEW ENGLAND
 IN CT

CITY           SKY/WX    TMP DP  RH WIND       PRES   REMARKS
Bradley INTL   CLEAR     78  53  41 W9        30.23S
Hartford       CLEAR     81  52  36 VRB7      30.22S
Danbury        CLEAR     74  54  49 W3        30.26S
Wtrbury/Oxford CLEAR     73  52  46 CALM      30.28F
Bridgeport     CLEAR     79  57  46 SW8       30.23F
Meriden        CLEAR     77  52  41 SW5       30.23F
New Haven      CLEAR     76  55  48 SW6       30.24F
Chester        FAIR      73  55  53 SW5       30.25S
Groton         CLEAR     74  60  61 SW6       30.23F
Wilimantic     CLEAR     77  58  51 S7        30.23F

 IN RI

CITY           SKY/WX    TMP DP  RH WIND       PRES   REMARKS
Providence     PTCLDY    77  51  40 W10       30.23S
Block Island   CLEAR     71  58  63 SW12      30.26S
Westerly       CLEAR     74  56  53 S5        30.25F
 IN MA

CITY           SKY/WX    TMP DP  RH WIND       PRES   REMARKS
Boston         PTCLDY    79  50  36 NW12      30.20S
Worcester      CLEAR     72  53  51 SW7       30.25S
Westfield      CLEAR     78  52  40 W6        30.22S
Provincetown   CLEAR     70  58  65 S10       30.22S
Nantucket      CLEAR     69  54  58 W9        30.24F
$$

ANZ330-335-338-340-345-350-353-355-240000-
COASTAL MARINE OBSERVATIONS


STATION/POSITION TIME  SKY/WX   TEMP    WIND        PRES    VSBY  WAVE
                                AIR SEA DIR/SP/G                  HT/PER
                 (UTC)          (F)     (DEG/KT/KT) (MB)    (MI)  (FT/S)
NY HARB ENTRANCE 2150            75 78  200/ 12/ 16 1024.4          2/ 3
20S FIRE ISLAND  2150            73 78  200/  8/ 10 1024.7          1/13
GREAT SOUTH BAY  2215            74 80  230/ 10/ 12   N/A
23 SSW MONTAUK P 2150            73 75  240/ 10/ 12 1025.3          1/ 8
15 E BARNEGAT LI 2200               77                N/A           2/11
HUDSON CANYON    2150            74 79              1025.4          2/ 7
KINGS POINT      2200            76 77              1023.9
EXECUTION ROCKS  2215            79     170/  8/ 10   N/A
CENTRAL LI SOUND 2200            76 75  230/  8/ 10   N/A           1
EASTERN LI SOUND 2200            72 69  240/  6/  8   N/A
ROBBINS REEF     2206            75     160/ 12/ 15 1023.3
$$


>>>>>>>>>>>>>>>>>>>>>>>>>>>> KEY <<<<<<<<<<<<<<<<<<<<<<<<<<<
>                                                          <
>     SKY/WX - Sky Condition/Present Weather               <
>     TMP    - Temperature in Fahrenheit                   <
>     DP     - Dew Point in Fahrenheit                     <
>     RH     - Relative Humidity in Percent                <
>     WIND   - Direction (from) and Speed in MPH           <
>     PRES   - Mean Sea Level Pressure (inches of Hg)      <
>     WCI    - Wind Chill Index                            <
>     VSB    - VISIBILITY IN MILES                         <
>     HX     - HEAT INDEX                                  <
>     TC     - TEMPERATURE IN CELSIUS                      <
>     VRB    - VARIABLE WIND DIRECTION                     <
>                                                          <
>>>>>>>>>>>>>>>>>>>>>>>>>>>> KEY <<<<<<<<<<<<<<<<<<<<<<<<<<<




USA.gov is the U.S. government's official web portal to all federal, state and local government web resources and services.